Cloud_Cover
5 1 6 93 88 94 92 100 100 100 99 2 2 20 100 94 90 40 39 8 6 59 100 93 100 6 64 78 3 1 0 0 1 0 1 0 0 0 0 5 19 5 1 5 2 3 4 4 9
3 4 5 23 82 6 95 72 12 28 24 2 4 30 92 89 52 100 16 11 100 86 19 4 49 4 9 3 4 0 0 0 6 0 0 0 2 0 0 54 5 5 7 5 0 6 6 5 27
56 32 4 20 8 55 5 81 100 100 76 98 70 96 99 26 100 99 27 4 5 7 5 5 5 3 3 5 1 7 0 0 0 0 0 4 25 4 49 75 2 7 67 7 7 12 5 5 90
17 84 30 0 5 10 23 0 98 54 74 10 5 5 16 89 68 2 0 5 14 15 5 5 5 5 7 5 4 1 4 15 0 5 0 0 48 96 53 1 0 5 33 5 4 5 5 8 45
6 2 11 5 2 5 28 2 68 47 100 88 2 40 12 2 0 1 0 5 34 10 5 5 5 5 5 5 5 5 5 0 0 4 0 5 90 3 0 0 4 6 5 7 3 50 10 5 67
16 55 53 5 5 6 3 4 97 68 0 0 10 1 0 0 1 0 0 0 0 3 5 5 5 5 6 5 5 6 6 17 5 5 1 5 0 2 4 1 20 5 5 0 5 5 41 5 5
10 5 4 5 5 29 1 5 5 26 0 0 0 0 0 0 3 2 0 4 0 3 1 5 5 5 5 5 5 78 28 6 5 5 6 5 7 84 54 3 24 2 3 3 6 86 89 5 5
100 47 57 13 5 37 0 3 0 0 0 0 0 5 1 0 2 0 0 0 0 1 0 5 5 5 5 5 5 30 5 5 36 8 98 97 100 100 73 6 32 4 0 2 19 99 100 55 5
78 100 28 5 4 96 1 0 3 9 1 0 2 0 1 24 0 3 42 50 25 22 21 5 5 5 5 5 5 5 5 23 100 79 100 100 100 95 100 89 5 5 46 3 25 77 88 100 72
80 98 85 46 25 92 95 7 66 45 4 0 12 3 53 52 0 4 28 72 34 30 45 5 5 5 5 5 27 5 5 6 16 87 18 41 15 94 83 97 93 30 6 5 5 21 72 100 100
69 80 51 64 70 4 14 74 3 8 74 100 78 100 100 1 0 0 0 15 59 13 27 59 5 5 5 5 10 56 18 12 16 92 64 41 96 100 100 47 5 5 5 5 5 5 28 100 99
98 89 42 100 26 20 77 25 67 68 25 44 17 9 98 4 0 0 0 0 5 4 5 5 21 5 5 5 21 92 53 24 22 33 44 100 100 100 47 5 5 2 5 5 34 47 31 5 64
69 52 91 100 98 100 100 0 0 52 23 13 47 6 53 0 0 0 8 2 86 8 2 2 13 5 5 29 98 72 68 48 9 23 23 87 81 10 5 5 5 5 5 5 5 50 9 16 31
5 4 56 100 90 99 3 0 0 41 5 44 99 37 0 0 0 0 0 0 0 5 5 0 2 5 5 12 78 31 13 30 20 9 8 77 46 5 5 5 5 5 5 5 3 5 6 47 72
69 5 5 80 35 69 54 2 2 12 6 59 66 4 0 0 0 0 0 0 0 0 5 36 0 5 5 24 68 59 60 6 5 5 5 8 95 60 7 78 5 5 5 5 5 5 5 89 85
62 27 39 5 5 0 67 36 5 8 22 98 67 17 0 0 0 0 0 0 0 0 0 5 40 4 38 44 23 49 5 5 10 33 14 79 100 100 73 96 99 41 8 5 5 35 5 76 93
5 5 5 1 2 2 54 100 97 77 52 95 77 54 2 4 4 0 0 0 0 0 0 0 0 5 5 26 5 20 16 61 58 90 63 40 88 41 100 100 100 100 94 6 86 100 24 5 96
4 9 5 5 9 7 93 12 97 13 44 10 5 5 12 5 5 2 2 0 0 0 0 4 1 0 5 6 41 79 57 6 5 56 30 28 52 49 27 36 100 100 100 38 78 53 21 95 100
63 5 19 90 52 89 6 40 100 16 100 100 5 33 4 0 5 4 20 74 0 1 2 5 5 4 5 14 86 100 97 5 25 100 100 51 67 93 100 98 87 90 100 100 5 59 99 80 100
97 5 26 68 100 51 27 91 94 100 95 100 47 4 5 7 54 20 71 100 34 11 0 2 4 3 1 10 5 8 53 55 97 100 91 91 100 100 100 100 66 96 100 100 71 46 93 96 100
64 35 67 91 94 85 22 40 33 98 100 73 2 3 5 64 98 93 100 100 93 64 44 31 2 0 0 0 2 3 10 57 19 33 94 22 71 69 90 95 72 35 79 88 98 38 100 82 99
43 34 98 98 60 100 37 89 59 59 100 100 100 99 100 100 100 100 100 100 100 21 5 6 84 54 1 3 5 5 4 79 92 50 82 88 98 78 80 99 100 100 96 100 100 100 100 100 100
4 99 13 98 99 100 100 17 95 48 95 100 100 100 100 100 97 100 100 100 100 100 33 28 100 96 6 4 11 80 100 93 91 73 7 5 5 59 82 100 100 100 100 100 100 100 100 100 100
8 44 5 5 89 96 97 89 96 35 26 40 100 100 100 100 100 100 100 100 79 100 100 98 80 61 48 80 100 100 100 100 100 100 81 10 17 100 88 94 100 100 100 100 100 100 100 100 100
78 98 95 52 5 3 0 0 5 11 24 0 40 92 64 100 100 100 100 100 100 98 97 100 99 33 88 100 100 100 100 100 100 100 100 100 100 100 100 100 100 100 100 100 100 100 100 100 100
59 19 5 96 35 32 5 0 0 0 0 0 1 4 91 100 100 100 100 100 100 100 100 82 99 98 47 100 100 100 100 100 100 100 100 100 100 100 100 100 100 100 100 100 100 100 100 100 100
5 55 5 77 92 5 5 5 0 0 8 0 2 1 98 100 73 99 91 100 98 100 100 100 100 100 93 90 100 100 100 100 100 100 100 100 100 100 100 100 100 100 100 100 100 100 100 100 100
3 3 67 2 2 19 12 5 1 30 67 4 4 5 17 24 86 100 97 100 100 95 79 100 100 93 58 100 100 100 100 100 100 100 100 100 100 100 100 82 78 100 100 100 100 100 98 100 100
0 1 2 11 5 3 55 0 5 97 7 5 3 4 50 77 39 100 100 100 100 99 29 30 16 14 45 10 15 11 92 100 100 100 100 100 100 98 100 100 87 60 100 37 99 100 100 100 100
0 3 8 90 5 98 28 0 0 35 10 5 0 5 5 66 88 100 99 100 100 100 100 83 13 38 17 10 0 0 0 2 5 9 53 7 18 23 100 100 100 75 44 99 62 100 100 100 100